Home > Weather > Celje > Past weeks

Flag for Slovenia Past Weather in Celje, Slovenia — Yesterday and Last 2 Weeks

Now
57 °F

Cool.


Feels Like: 57 °F
Forecast: 60 / 83 °F
Wind: 1 mph from Southwest

Location: Celje

Current Time: Jun 29, 2016 at 2:13:15 AM

Latest Report: Jun 29, 2016 at 1:00 AM


Visibility: N/A

Pressure: 30.07 "Hg

Humidity: 95%

Dew Point: 55 °F

Location of CeljeLocation

Past Weather in Celje — Graph

°F

Celje Temperature Yesterday

Maximum temperature yesterday: 79 °F (at 4:00 PM)
Minimum temperature yesterday: 51 °F (at 5:00 AM)
Average temperature yesterday: 66 °F

High & Low Weather Summary for the Past Weeks

 TemperatureHumidityPressure
High90 °F (Jun 24, 5:00 PM)99% (Jun 21, 7:00 AM)30.27 "Hg (Jun 21, 7:00 AM)
Low51 °F (Jun 28, 5:00 AM)38% (Jun 18, 2:00 PM)29.54 "Hg (Jun 15, 8:00 AM)
Average67 °F78%29.97 "Hg
* Reported Jun 14 12:00 AM — Jun 28 11:00 PM, Celje, Weather by CustomWeather, © 2016

Note: Actual official high and low records may vary slightly from our data, if they occured in-between our weather recording intervals... More about our weather records

Advertising

Celje Weather History for the Previous 24 Hours

Scroll right to see more
 ConditionsComfort  
Time TempWeatherWind HumidityBarometerVisibility
11:00 PM
Tue, Jun 28
60 °FCool.1 mph92%30.05 "HgN/A
10:00 PM62 °FCool.1 mph86%30.03 "HgN/A
9:00 PM65 °FMild.1 mph80%30.01 "HgN/A
8:00 PM72 °FPassing clouds.2 mph64%29.99 "Hg31 mi
7:00 PM78 °FWarm.2 mph43%29.98 "HgN/A
6:00 PM78 °FWarm.2 mph46%29.98 "HgN/A
5:00 PM79 °FWarm.3 mph42%29.98 "HgN/A
4:00 PM79 °FWarm.1 mph40%29.99 "HgN/A
3:00 PM78 °FScattered clouds.2 mph42%30.01 "Hg31 mi
2:00 PM78 °FScattered clouds.2 mph45%30.02 "Hg31 mi
1:00 PM77 °FWarm.2 mph43%30.04 "HgN/A
12:00 PM74 °FMild.1 mph43%30.05 "HgN/A
11:00 AM72 °FMild.1 mph58%30.06 "HgN/A
10:00 AM69 °FMild.2 mph62%30.07 "HgN/A
9:00 AM65 °FMild.3 mph70%30.08 "HgN/A
8:00 AM62 °FPassing clouds.2 mph88%30.09 "Hg31 mi
7:00 AM56 °FCool.1 mph96%30.10 "HgN/A
6:00 AM52 °FCool.1 mph98%30.11 "HgN/A
5:00 AM51 °FCool.No wind98%30.11 "HgN/A
4:00 AM52 °FCool.1 mph97%30.11 "HgN/A
3:00 AM53 °FCool.1 mph97%30.11 "HgN/A
2:00 AM53 °FCool.1 mph97%30.11 "HgN/A
Weather by CustomWeather, © 2016

See weather overviewHow to use our weather pages